Date,TemperatureHighF,TemperatureAvgF,TemperatureLowF,DewpointHighF,DewpointAvgF,DewpointLowF,HumidityHigh,HumidityAvg,HumidityLow,PressureMaxIn,PressureMinIn,WindSpeedMaxMPH,WindSpeedAvgMPH,GustSpeedMaxMPH,PrecipitationSumIn
2013-1-1,57,53,48,51,50,47,99,89,80,30.15,30.06,61,8,61,0.00
2013-1-2,60,54,45,54,51,44,99,90,77,30.31,30.18,8,3,8,0.00
2013-1-3,62,54,47,54,50,44,99,86,74,30.40,30.30,11,2,11,0.00
2013-1-4,60,54,47,46,43,40,85,66,51,30.33,30.04,11,2,11,0.00
2013-1-5,58,53,47,44,41,39,76,64,56,30.05,29.77,14,3,14,0.00
2013-1-6,49,45,40,43,40,36,94,83,74,29.90,29.74,28,11,28,0.00
2013-1-7,55,46,40,39,34,28,77,62,50,30.00,29.84,28,10,28,1.52
2013-1-8,43,36,33,36,32,27,99,86,56,30.18,29.99,31,10,31,0.04
2013-1-9,46,40,34,36,32,28,84,74,61,30.22,30.14,16,3,16,0.01
2013-1-10,52,44,35,42,36,30,85,74,54,30.17,30.00,14,3,14,0.00
2013-1-11,62,55,47,57,52,42,99,90,74,30.00,29.81,21,4,21,0.09
2013-1-12,60,53,47,54,48,44,99,86,72,30.03,29.80,18,4,18,0.00
2013-1-13,59,51,44,50,46,41,98,85,65,30.22,30.03,13,4,13,0.00
2013-1-14,60,53,49,54,49,46,94,88,76,30.27,30.20,16,4,16,0.00
2013-1-15,61,56,49,56,52,48,98,88,77,30.24,29.99,27,7,27,0.01
2013-1-16,60,55,50,57,52,46,99,90,76,29.99,29.65,38,15,38,0.84
2013-1-17,60,54,46,56,51,43,95,87,73,29.78,29.62,34,9,34,0.00
2013-1-18,58,53,46,56,50,42,99,90,78,29.63,29.45,34,11,34,0.19
2013-1-19,57,50,44,47,44,41,92,79,64,29.85,29.54,26,6,26,0.00
2013-1-20,66,56,49,59,52,44,93,84,66,29.94,29.84,21,6,21,0.00
2013-1-21,66,59,51,58,54,49,99,84,59,29.89,29.65,28,8,28,0.00
2013-1-22,63,57,50,55,52,49,98,84,68,29.79,29.66,15,5,15,0.00
2013-1-23,70,56,51,57,48,45,87,75,61,29.96,29.78,17,5,17,0.05
2013-1-24,63,55,46,57,52,46,99,91,77,29.92,29.59,36,10,36,0.47
2013-1-25,59,51,45,53,49,44,99,93,74,29.65,29.49,41,9,41,0.44
2013-1-26,58,50,46,52,49,46,99,95,78,29.66,29.44,14,4,14,0.25
2013-1-27,54,48,44,48,46,44,99,92,78,29.93,29.65,21,6,21,0.01
2013-1-28,56,50,45,49,45,42,97,85,74,29.99,29.88,14,4,14,0.00
2013-1-29,51,47,43,46,44,40,99,90,82,30.08,29.98,23,6,23,0.00
2013-1-30,59,50,41,44,39,32,95,69,44,30.07,29.93,21,3,21,0.00
2013-1-31,61,53,45,51,44,38,81,70,58,30.02,29.83,24,6,24,0.00
2013-2-1,60,53,43,48,42,35,85,66,49,30.05,29.88,20,5,20,0.00
2013-2-2,65,57,48,57,52,45,94,84,68,29.88,29.76,21,6,21,0.00
2013-2-3,66,60,57,59,58,56,99,91,76,29.92,29.77,43,21,43,0.06
2013-2-4,67,60,55,60,57,53,99,91,71,29.98,29.91,18,4,18,0.00
2013-2-5,64,57,50,57,53,47,99,87,72,29.99,29.82,28,8,28,0.00
2013-2-6,63,55,49,56,52,47,98,87,74,29.82,29.66,13,4,13,0.00
2013-2-7,61,56,51,55,52,49,99,89,79,29.70,29.51,46,16,46,0.37
2013-2-8,57,52,47,50,46,43,90,81,69,29.75,29.53,15,5,15,0.00
2013-2-9,60,52,43,48,45,41,95,79,61,29.87,29.74,21,6,21,0.01
2013-2-10,59,52,46,46,44,41,86,73,59,29.88,29.77,15,4,15,0.00
2013-2-11,55,49,45,43,40,38,86,73,58,30.05,29.76,19,5,19,0.00
2013-2-12,61,52,42,52,46,37,87,80,56,30.06,29.97,17,6,17,0.00
2013-2-13,57,52,45,53,50,45,99,91,75,29.99,29.87,36,8,36,0.77
2013-2-14,53,49,47,51,48,47,99,98,90,29.90,29.67,26,5,26,0.34
2013-2-15,52,48,44,50,47,44,99,97,89,30.01,29.66,32,5,32,0.24
2013-2-16,56,50,44,50,47,44,99,92,80,30.05,29.98,17,5,17,0.11
2013-2-17,47,45,42,47,44,41,99,97,94,30.05,29.93,30,9,30,0.28
2013-2-18,54,47,40,45,43,40,98,86,68,30.07,30.02,20,5,20,0.00
2013-2-19,57,50,44,54,48,42,99,91,81,30.02,29.75,22,4,22,0.15
2013-2-20,60,52,44,46,44,40,88,75,53,30.05,29.82,17,4,17,0.00
2013-2-21,55,52,46,54,48,42,99,88,83,30.03,29.68,26,6,26,0.04
2013-2-22,57,52,49,56,52,49,99,99,96,29.73,29.56,17,7,17,1.68
2013-2-23,65,55,48,58,52,48,99,90,69,30.03,29.73,13,3,13,0.01
2013-2-24,70,60,52,60,54,52,99,82,60,30.09,30.01,19,6,19,0.00
2013-2-25,68,61,54,60,57,53,99,85,71,30.07,29.97,22,8,22,0.00
2013-2-26,67,60,52,59,52,46,95,77,54,30.03,29.96,17,6,17,0.00
2013-2-27,61,54,50,49,45,43,84,73,55,30.05,29.93,19,6,19,0.00
2013-2-28,54,49,45,46,44,41,91,83,75,30.19,30.04,25,11,25,0.00
2013-3-1,61,50,42,48,42,37,88,77,58,30.17,29.99,14,4,14,0.00
2013-3-2,60,52,44,52,47,41,96,83,69,30.00,29.84,24,5,24,0.00
2013-3-3,56,51,45,50,47,41,99,86,72,29.96,29.76,46,15,46,0.15
2013-3-4,65,51,42,51,45,39,90,79,55,30.17,29.96,14,3,14,0.00
2013-3-5,57,50,45,47,43,39,90,77,65,30.40,30.17,29,10,29,0.00
2013-3-6,61,52,45,46,42,39,81,71,50,30.37,30.12,24,7,24,0.00
2013-3-7,57,53,50,56,51,45,99,93,81,30.13,29.90,13,3,13,0.18
2013-3-8,66,56,50,57,54,50,99,92,72,29.90,29.83,11,3,11,0.00
2013-3-9,70,60,51,60,56,51,99,86,68,29.83,29.71,18,4,18,0.01
2013-3-10,70,61,55,56,54,52,92,79,56,29.81,29.70,13,4,13,0.00
2013-3-11,72,63,54,62,57,52,99,82,69,29.71,29.58,16,5,16,0.00
2013-3-12,70,62,56,52,51,48,78,67,51,29.72,29.58,21,6,21,0.00
2013-3-13,68,60,51,59,53,47,95,77,59,29.74,29.68,24,8,24,0.00
2013-3-14,70,63,56,59,54,46,96,73,51,29.70,29.30,36,14,36,0.00
2013-3-15,62,56,50,50,47,42,78,71,60,29.60,29.37,24,10,27,0.00
2013-3-16,56,50,44,47,42,38,84,75,61,30.00,29.59,19,4,19,0.01
2013-3-17,57,48,41,43,40,38,89,75,53,30.17,29.99,17,4,17,0.00
2013-3-18,57,51,43,52,46,39,93,84,68,30.17,29.92,16,6,16,0.00
2013-3-19,65,59,53,58,55,51,96,87,78,29.93,29.76,25,9,25,0.00
2013-3-20,70,61,51,61,55,51,99,82,62,29.90,29.78,14,3,14,0.00
2013-3-21,69,63,58,61,57,45,95,83,62,29.78,29.53,30,6,30,0.01
2013-3-22,65,58,52,48,44,37,78,62,50,29.77,29.53,27,12,27,0.01
2013-3-23,68,56,47,47,37,28,77,50,29,29.97,29.77,19,6,19,0.00
2013-3-24,68,59,48,56,50,44,90,75,60,30.00,29.93,15,5,15,0.00
2013-3-25,67,60,54,59,55,51,95,84,70,29.93,29.59,30,10,30,0.00
2013-3-26,69,61,55,58,53,50,94,77,63,29.65,29.52,22,8,22,0.00
2013-3-27,69,61,54,59,53,49,84,75,64,29.84,29.65,23,6,23,0.00
2013-3-28,70,59,54,60,55,50,99,85,66,30.05,29.83,14,3,14,0.09
2013-3-29,68,60,52,60,56,52,99,88,72,30.05,29.98,11,2,11,0.00
2013-3-30,77,65,56,61,57,54,94,77,54,29.99,29.82,18,4,18,0.00
2013-3-31,72,63,57,62,58,53,93,83,66,29.84,29.73,15,4,15,0.00
2013-4-1,75,64,55,59,52,46,97,65,40,29.88,29.76,22,7,22,0.00
2013-4-2,75,65,56,60,54,50,85,67,48,29.88,29.56,17,5,17,0.00
2013-4-3,71,64,59,61,54,49,98,72,50,29.68,29.46,25,9,25,0.00
2013-4-4,73,64,56,54,51,49,78,64,47,29.94,29.68,23,7,23,0.00
2013-4-5,75,64,56,58,51,41,77,64,30,29.95,29.79,32,8,32,0.00
2013-4-6,75,66,56,60,56,51,85,72,55,29.81,29.67,27,4,27,0.00
2013-4-7,70,64,60,63,58,52,95,79,68,29.71,29.31,39,12,39,0.00
2013-4-8,63,59,55,56,53,51,91,81,72,29.88,29.40,16,4,16,0.02
2013-4-9,70,60,52,55,53,50,95,77,57,29.99,29.87,21,6,21,0.00
2013-4-10,72,62,52,56,53,-9,91,73,53,29.99,29.89,61,5,61,0.01
2013-4-11,76,63,53,57,53,49,88,72,46,30.03,29.91,16,3,16,0.00
2013-4-12,75,64,54,58,54,50,91,70,54,30.07,29.98,14,4,14,0.00
2013-4-13,78,67,56,59,54,49,83,66,48,30.10,30.04,14,4,14,0.00
2013-4-14,78,66,52,62,55,36,82,68,48,30.10,30.03,52,9,52,0.01
2013-4-15,65,59,55,53,50,46,83,71,55,30.08,30.00,40,11,40,0.02
2013-4-16,66,57,51,52,48,45,92,73,54,30.07,29.05,32,10,32,0.05
2013-4-17,68,59,54,46,42,37,72,54,36,30.09,30.01,41,13,41,0.07
2013-4-18,67,58,52,45,40,36,71,52,37,30.08,30.00,40,14,40,0.05
2013-4-19,64,57,50,51,44,39,82,62,52,30.01,29.93,32,7,32,0.02
2013-4-20,64,60,55,51,49,47,75,67,62,30.00,29.97,25,11,25,0.00
2013-4-21,72,65,58,54,50,47,71,60,41,29.99,29.93,17,4,17,0.00
2013-4-22,74,61,55,50,48,45,73,61,43,30.07,29.97,18,6,18,0.00
2013-4-23,74,64,54,56,51,45,75,63,51,30.21,30.06,28,7,28,0.00
2013-4-24,78,70,63,57,51,46,69,51,34,30.30,30.24,21,8,21,0.00
2013-4-25,83,77,67,58,54,20,53,45,10,30.27,30.15,24,8,24,0.00
2013-4-26,87,74,61,55,50,46,62,45,28,30.16,29.99,18,5,18,0.00
2013-4-27,83,73,62,54,51,47,64,48,35,29.99,29.90,17,5,17,0.00
2013-4-28,83,71,60,60,52,47,80,53,33,30.05,29.93,18,4,18,0.00
2013-4-29,88,74,61,60,52,44,57,46,33,30.11,30.03,16,3,16,0.00
2013-4-30,88,78,65,60,53,46,53,43,35,30.10,30.02,28,10,28,0.00
2013-5-1,88,79,68,62,56,49,59,45,36,30.05,29.94,27,9,27,0.00
2013-5-2,88,79,70,58,53,48,53,41,31,29.95,29.89,35,12,35,0.00
2013-5-3,89,76,66,65,58,51,69,54,39,29.91,29.82,26,6,26,0.00
2013-5-4,90,77,66,66,62,57,76,61,43,29.95,26.75,11,3,11,0.00
2013-5-5,90,79,68,65,61,56,68,54,40,30.04,29.92,16,4,16,0.00
2013-5-6,87,78,72,64,61,57,67,56,42,30.06,29.97,32,13,32,0.00
2013-5-7,84,75,69,61,58,55,67,56,45,29.99,29.85,29,12,29,0.00
2013-5-8,76,69,63,65,60,55,87,75,59,29.89,29.80,21,5,21,0.00
2013-5-9,75,66,61,64,60,57,88,79,67,29.88,29.81,33,12,33,0.00
2013-5-10,75,66,61,63,59,56,92,78,62,29.89,29.81,24,7,24,0.04
2013-5-11,81,70,60,64,60,55,89,70,54,29.86,29.74,16,5,16,0.00
2013-5-12,82,73,67,65,61,58,81,68,49,29.74,29.63,26,6,26,0.00
2013-5-13,75,67,62,63,58,55,99,74,56,29.68,29.63,26,5,26,0.14
2013-5-14,76,65,59,61,58,54,99,78,59,29.84,29.65,19,4,19,0.21
2013-5-15,80,70,59,63,59,54,88,69,52,29.88,29.81,17,5,17,0.00
2013-5-16,79,69,61,64,60,55,93,73,49,29.90,29.82,20,4,20,0.00
2013-5-17,82,71,64,67,63,57,90,75,56,29.93,29.81,13,3,13,0.01
2013-5-18,90,77,65,71,65,61,89,69,49,29.99,29.89,13,3,13,0.00
2013-5-19,93,80,70,72,65,63,80,63,42,29.95,29.88,12,3,12,0.00
2013-5-20,93,81,70,70,66,62,77,62,46,29.91,29.85,13,3,13,0.00
2013-5-21,92,81,70,68,64,60,71,57,38,29.92,29.85,14,4,14,0.00
2013-5-22,88,78,69,66,62,55,75,60,34,29.87,29.68,15,4,15,0.00
2013-5-23,86,77,68,67,61,56,76,58,45,29.70,29.56,29,12,29,0.00
2013-5-24,80,72,66,62,57,54,70,60,50,29.90,29.68,19,8,19,0.00
2013-5-25,80,73,65,62,57,54,67,58,45,29.94,29.87,20,8,20,0.00
2013-5-26,86,75,66,62,57,53,70,55,40,29.93,29.83,17,6,17,0.00
2013-5-27,82,72,63,57,51,46,68,48,33,29.95,29.89,15,6,15,0.00
2013-5-28,80,71,60,65,59,54,83,67,51,29.93,29.74,26,5,26,0.00
2013-5-29,88,78,70,70,62,50,75,58,47,29.74,29.55,23,7,23,0.00
2013-5-30,89,78,70,67,61,54,80,59,38,29.72,29.64,17,6,17,0.00
2013-5-31,83,74,68,61,56,49,70,53,39,29.78,29.64,24,8,24,0.00
2013-6-1,76,69,62,63,55,47,88,63,43,29.84,29.74,18,6,18,0.01
2013-6-2,79,70,62,61,58,53,90,67,47,29.82,29.65,24,7,24,0.02
2013-6-3,81,75,67,62,58,56,73,56,43,29.86,29.82,18,7,18,0.00
2013-6-4,82,75,67,63,60,55,77,61,42,29.89,29.79,21,7,21,0.00
2013-6-5,83,74,67,63,59,54,75,59,40,29.93,29.86,19,6,19,0.02
2013-6-6,83,74,65,68,64,60,90,70,51,30.00,29.91,16,4,16,0.00
2013-6-7,84,76,71,65,62,57,77,62,47,29.94,29.82,13,5,13,0.00
2013-6-8,86,74,69,68,64,60,83,70,51,29.85,29.78,26,8,26,0.00
2013-6-9,86,75,65,69,64,61,89,70,54,29.93,29.84,13,4,13,0.00
2013-6-10,87,78,68,70,65,60,79,64,52,29.93,29.80,15,4,15,0.00
2013-6-11,90,80,71,67,64,60,83,61,41,29.81,29.60,17,7,17,0.01
2013-6-12,84,72,64,67,61,57,93,70,49,29.76,29.64,22,4,22,0.09
2013-6-13,77,69,64,66,63,61,92,80,65,29.83,29.72,25,6,25,0.02
2013-6-14,83,72,64,68,64,61,92,77,58,29.90,29.80,22,5,22,0.02
2013-6-15,87,77,66,70,65,61,84,68,50,29.93,29.87,13,4,13,0.00
2013-6-16,96,80,68,74,67,62,84,66,34,29.95,29.90,17,4,17,0.00
2013-6-17,94,84,72,70,66,62,83,58,44,29.97,29.91,27,9,27,0.00
2013-6-18,92,85,78,69,66,62,62,54,45,29.96,29.90,41,16,41,0.02
2013-6-19,92,84,76,68,65,62,64,54,44,29.93,29.85,40,15,40,0.04
2013-6-20,93,85,79,67,64,59,63,50,42,29.95,29.82,44,21,44,0.01
2013-6-21,89,82,76,68,64,60,64,55,47,29.94,29.87,39,16,39,0.04
2013-6-22,94,84,73,64,60,55,63,46,31,29.91,29.82,34,11,34,0.00
2013-6-23,98,86,74,73,65,46,65,51,41,29.85,29.76,27,6,27,0.00
2013-6-24,98,86,76,70,66,61,69,52,38,29.79,29.73,14,4,14,0.00
2013-6-25,97,86,78,69,66,63,64,52,38,29.78,29.73,18,5,18,0.00
2013-6-26,95,84,74,75,68,61,72,59,46,29.86,29.75,20,5,20,0.00
2013-6-27,91,82,75,72,69,66,79,66,50,29.89,29.83,24,5,24,0.00
2013-6-28,90,80,72,73,69,64,81,70,51,29.90,29.85,17,5,17,0.00
2013-6-29,90,80,71,70,66,56,83,62,47,29.89,29.73,19,6,19,0.00
2013-6-30,87,78,71,65,61,57,71,58,42,29.86,29.73,20,6,20,0.00
2013-7-1,89,78,69,67,61,57,75,58,37,29.99,29.85,22,5,22,0.00
2013-7-2,89,79,69,67,64,60,82,61,42,30.00,29.92,18,6,18,0.00
2013-7-3,89,80,71,67,62,57,68,55,46,29.95,29.86,24,9,24,0.00
2013-7-4,88,79,70,67,61,56,66,54,45,29.90,29.83,29,9,29,0.00
2013-7-5,88,80,71,70,62,56,64,55,44,29.89,29.84,32,8,32,0.00
2013-7-6,87,80,73,69,66,61,77,62,51,29.87,29.81,36,10,36,0.00
2013-7-7,89,82,75,70,67,64,73,61,53,29.93,29.82,34,13,34,0.00
2013-7-8,92,84,76,67,65,62,66,53,41,29.97,29.91,31,11,31,0.00
2013-7-9,93,85,78,70,66,61,63,54,44,29.95,29.81,30,10,30,0.00
2013-7-10,92,83,76,70,66,60,72,58,45,29.83,29.71,32,10,32,0.00
2013-7-11,94,83,74,70,66,60,67,55,44,29.82,29.72,28,6,28,0.01
2013-7-12,93,84,74,72,67,62,73,58,46,29.89,29.80,18,5,18,0.00
2013-7-13,93,84,76,72,68,63,69,59,48,29.90,29.84,24,8,24,0.00
2013-7-14,94,84,76,70,66,62,65,55,41,29.90,29.82,27,9,27,0.00
2013-7-15,92,83,77,67,63,60,56,51,45,29.88,29.82,30,11,30,0.00
2013-7-16,88,83,77,68,64,60,58,53,47,29.91,29.84,28,13,28,0.00
2013-7-17,84,77,73,67,64,60,76,64,55,29.96,29.90,32,12,32,0.01
2013-7-18,86,82,76,64,62,59,59,52,43,29.99,29.94,36,13,36,0.02
2013-7-19,88,80,74,64,61,57,64,53,43,29.98,29.89,36,13,36,0.00
2013-7-20,91,82,71,67,62,57,66,51,38,29.89,29.79,34,9,34,0.00
2013-7-21,81,80,80,64,64,63,59,57,55,29.86,29.85,10,4,10,0.00
2013-7-22,87,79,74,69,65,61,79,63,49,29.88,29.81,34,12,34,0.00
2013-7-23,89,80,71,67,61,56,72,54,34,29.86,29.81,30,9,30,0.00
2013-7-24,97,84,72,64,60,54,54,44,33,29.90,29.84,30,7,30,0.00
2013-7-25,98,86,74,71,63,56,61,47,30,29.92,29.84,17,4,17,0.00
2013-7-26,100,88,76,68,63,58,61,45,33,29.87,29.80,24,5,24,0.00
2013-7-27,92,86,80,68,64,60,53,48,41,29.91,29.82,32,11,32,0.02
2013-7-28,94,85,78,69,65,60,63,51,42,29.99,29.89,28,12,28,0.00
2013-7-29,96,86,77,67,64,61,61,47,35,29.99,29.90,36,12,36,0.00
2013-7-30,100,90,78,73,67,60,63,48,39,29.91,29.73,17,5,17,0.00
2013-7-31,97,88,81,76,70,64,65,55,47,29.79,29.70,29,13,29,0.00
2013-8-1,89,83,78,73,68,64,81,62,50,29.91,29.78,37,16,37,0.02
2013-8-2,91,83,76,69,66,62,69,57,44,29.94,29.89,34,12,34,0.00
2013-8-3,93,85,78,69,65,60,65,52,41,29.93,29.89,36,12,36,0.00
2013-8-4,96,88,79,70,65,60,60,48,36,29.93,29.87,35,14,35,0.00
2013-8-5,90,82,77,69,63,58,67,52,38,29.95,29.88,39,15,39,0.04
2013-8-6,89,82,76,65,62,58,60,51,38,29.91,29.84,59,16,59,0.13
2013-8-7,90,83,77,64,62,60,59,50,40,29.92,29.49,42,17,42,0.05
2013-8-8,94,84,77,66,63,58,59,49,35,29.94,29.87,46,14,46,0.09
2013-8-9,95,86,78,69,64,24,62,49,12,29.91,29.78,33,11,33,0.00
2013-8-10,96,84,-29,76,68,-33,80,59,40,29.78,29.62,14,5,14,0.02
2013-8-11,91,83,26,72,62,-23,80,51,10,29.83,29.65,27,12,27,0.00
2013-8-12,92,84,76,69,64,61,67,51,39,29.90,29.82,34,11,34,0.02
2013-8-13,95,85,75,67,63,58,62,48,37,29.90,29.83,34,11,34,0.02
2013-8-14,94,86,-16,65,62,-36,60,45,34,29.84,29.79,32,11,32,0.05
2013-8-15,95,84,78,67,63,60,59,50,36,29.86,29.78,37,10,37,0.00
2013-8-16,90,76,-22,73,62,-31,79,64,10,29.87,29.81,36,15,36,0.00
2013-8-17,90,83,-13,72,69,-19,79,63,54,29.90,29.82,38,15,38,0.01
2013-8-18,91,82,-24,67,62,-39,65,52,42,29.95,29.87,35,11,35,0.02
2013-8-19,94,84,75,69,63,58,58,50,39,29.93,29.85,33,10,33,0.00
2013-8-20,114,84,76,94,63,58,61,49,34,29.87,29.81,36,12,36,0.05
2013-8-21,89,82,76,70,65,21,66,57,10,29.87,29.82,32,12,32,0.24
2013-8-22,87,80,73,71,66,64,74,63,50,29.85,29.79,27,10,27,0.00
2013-8-23,91,82,74,68,63,56,74,55,41,29.92,29.54,33,9,33,0.00
2013-8-24,93,82,72,68,62,55,61,51,38,29.86,29.47,14,4,14,0.00
2013-8-25,92,82,74,73,66,60,69,57,45,29.86,29.81,15,3,15,0.00
2013-8-26,95,84,74,72,67,62,70,58,42,29.87,29.81,14,4,14,0.00
2013-8-27,98,86,76,73,68,65,71,58,39,29.87,29.80,13,4,13,0.00
2013-8-28,100,88,77,73,70,67,74,56,38,29.85,29.78,19,5,19,0.00
2013-8-29,97,87,80,73,70,67,69,58,42,29.88,29.81,16,5,16,0.00
2013-8-30,95,84,-15,73,68,-55,80,60,10,29.91,29.81,24,5,24,0.00
2013-8-31,86,79,75,71,65,59,82,63,50,29.97,29.87,30,12,30,0.00
2013-9-1,87,78,71,67,63,60,82,60,44,30.03,29.96,27,11,27,0.00